Location: Sawyer Lake
(45.2517°N, 88.7550°W)
Time: 06:21:26
(UTC-06:00)

Daily predictions for brighter satellites

Satellite Brightness Start Highest point End
(mag) Time Altitude Azimuth Time Altitude Azimuth Time Altitude Azimuth
Meteor 1-20 Rocket 4.4 17:58:12 10° S 18:04:02 87° E 18:09:55 10° NNE
Cosmos 1818 3.7 17:58:44 10° SSW 18:04:12 89° SE 18:09:42 10° NE
Cosmos 1633 3.2 18:01:49 10° SSE 18:05:12 36° E 18:08:37 10° NNE
Cosmos 1140 Rocket 3.8 18:02:18 10° S 18:07:09 44° ESE 18:12:03 10° NNE
METEOR-M 4.2 18:03:20 10° SSE 18:08:34 59° ENE 18:13:50 10° N
Cosmos 2322 3.7 18:02:54 10° NNW 18:08:39 70° ENE 18:14:20 10° SE
Cosmos 1570 Rocket 4.4 18:03:49 10° N 18:08:46 41° ENE 18:13:42 10° SE
Meteor 1-19 Rocket 4.4 18:07:31 10° N 18:13:07 55° ENE 18:18:45 10° SSE
SJ-6B 3.1 18:11:42 10° SE 18:15:29 44° ENE 18:19:13 10° N
TSX-5 3.3 18:17:11 10° SSW 18:20:20 85° WNW 18:23:41 10° NNE
Cosmos 405 Rocket 4.5 18:18:41 10° NNE 18:21:10 16° ENE 18:23:33 10° ESE
USA 229 DEB 4.0 18:14:29 10° NNW 18:21:26 52° NE 18:28:27 10° ESE
USA 229 4.1 18:14:35 10° NNW 18:21:31 52° NE 18:28:33 10° ESE
Cosmos 1300 Rocket 3.7 18:19:06 10° S 18:23:25 55° E 18:27:47 10° NNE
Cosmos 2237 Rocket 3.5 18:20:04 10° N 18:24:25 22° NE 18:28:14 12° E
Gbstr 26 Del rocket 2.9 18:22:27 10° SW 18:26:12 51° SE 18:29:29 12° ENE
COSMOS 2428 2.9 18:20:41 10° NNW 18:26:15 53° ENE 18:31:48 10° SE
Cosmos 2237 4.2 18:20:34 10° NNW 18:26:18 66° ENE 18:31:58 10° SE
Helios 1A 4.4 18:23:56 10° ESE 18:26:50 19° ENE 18:29:43 10° NNE
Helios 1B rocket 4.1 18:26:42 10° ENE 18:28:44 13° E 18:30:47 10° ESE
H-2A R/B 3.7 18:25:43 10° SE 18:28:52 26° ENE 18:32:04 10° N
Spot 2 Rocket 4.0 18:24:25 10° SE 18:29:04 38° ENE 18:33:45 10° N
COSMO-SKYMED 1 3.3 18:26:46 10° N 18:31:03 58° WNW 18:35:18 10° SSW
Meteor 2-4 Rocket 3.7 18:25:45 10° N 18:31:12 55° ENE 18:36:29 10° SSE
Cosmos 1238 Rocket 1.9 18:28:36 10° N 18:31:36 84° E 18:34:35 10° S
Meteor 1-13 Rocket 4.2 18:27:08 10° N 18:32:43 89° ENE 18:38:23 10° S
Meteor 1-23 Rocket 4.5 18:28:33 10° N 18:34:12 49° ENE 18:39:45 10° SSE
Resurs 01 Rocket 2.0 18:33:34 10° SE 18:37:44 43° ENE 18:41:55 10° N
USA 215 4.2 18:31:58 10° NE 18:38:03 43° NNW 18:44:07 10° W
Cosmos 2360 Rocket 2.7 18:32:38 10° NNW 18:38:14 64° WSW 18:43:49 10° S
Cosmos 2208 Rocket 4.1 18:33:06 10° NNW 18:38:34 67° ENE 18:43:56 10° SSE
Cosmos 2219 Rocket 2.7 18:33:24 10° NNW 18:38:38 39° NE 18:43:37 11° ESE
NOSS 8 (F) 4.4 18:38:06 10° SSW 18:41:35 78° SE 18:45:17 10° NE
Cosmos 1850 Rocket 4.1 18:37:41 10° S 18:42:53 59° ESE 18:48:09 10° NNE
Cosmos 1536 2.8 18:40:29 10° S 18:44:22 56° E 18:48:17 10° NNE
Envisat 4.3 18:44:07 17° E 18:45:46 20° ENE 18:49:22 10° NNE
Cosmos 2219 3.4 18:40:38 10° S 18:46:10 52° ESE 18:51:44 10° NE
Cosmos 1954 Rocket 4.5 18:43:26 10° SSW 18:48:36 64° WNW 18:53:49 10° NNE
HJ-1C 3.3 18:45:45 10° SSE 18:49:06 70° ENE 18:52:28 10° N
Cosmos 2227 Rocket 3.5 18:46:20 10° SE 18:49:27 17° ESE 18:49:27 17° ESE
Resurs 1-3 3.8 18:46:23 10° SE 18:50:36 49° ENE 18:54:51 10° N
NOSS 3-1 (C) 4.4 18:45:26 10° NNW 18:52:23 43° NE 18:57:53 19° ESE
Cosmos 2181 Rocket 4.3 18:46:18 10° NNW 18:52:33 73° W 18:58:51 10° S
SL-16 R/B 3.6 18:55:22 10° N 18:59:20 19° NE 19:00:38 18° ENE
Okean 1 Rocket 3.3 18:57:47 10° SSW 19:02:16 76° W 19:06:46 10° N
Cosmos 1892 Rocket 3.9 19:00:16 10° N 19:04:24 41° ENE 19:06:48 22° SE
Cosmos 2074 Rocket 3.9 18:59:26 10° S 19:05:39 69° E 19:11:55 10° NNE
Spot 1 4.2 19:03:52 21° SE 19:06:20 47° ENE 19:10:22 10° N
USA 186 3.4 19:09:28 19° NNE 19:09:28 19° NNE 19:10:35 10° N
Cosmos 2184 Rocket 3.9 19:04:40 10° S 19:10:57 73° E 19:17:11 10° NNE
SAR-Lupe-1 4.2 19:10:04 37° ESE 19:11:00 48° ENE 19:14:28 10° N
Cosmos 1025 Rocket 3.0 19:06:37 10° N 19:11:01 89° WSW 19:15:25 10° S
SAR-Lupe-4 3.5 19:10:00 28° SE 19:11:41 58° ENE 19:15:13 10° N
Meteor 1-11 Rocket 4.3 19:06:43 10° SSW 19:12:30 64° WNW 19:18:25 10° N
ALOS 2.7 19:09:29 10° S 19:14:07 64° W 19:18:47 10° NNW
Cosmos 2333 Rocket 2.2 19:14:57 10° NNW 19:20:42 64° ENE 19:23:54 27° SE
Cosmos 1980 3.8 19:18:23 10° NNW 19:23:57 55° ENE 19:26:08 35° ESE
Cosmos 841 Rocket 4.2 19:19:45 10° N 19:24:23 32° ENE 19:24:32 32° ENE
Meteor 2-13 Rocket 4.3 19:19:33 10° S 19:25:32 64° E 19:31:34 10° NNE
Abrixas rocket 2.4 19:22:36 10° SW 19:25:43 60° S 19:25:43 60° S
Nadezhda 3 Rocket 4.0 19:21:05 10° N 19:27:09 57° ENE 19:31:35 19° SSE
Cosmos 1544 Rocket 3.5 19:26:20 10° S 19:30:34 56° E 19:34:49 10° NNE
GEOS 3 Rocket 3.5 19:32:27 23° NE 19:35:47 75° SE 19:41:04 10° SSW
Cosmos 1763 Rocket 3.7 19:31:06 10° N 19:36:04 47° ENE 19:36:23 47° ENE
GPS 2-04 Rocket1 4.5 19:33:08 10° SW 19:36:30 22° S 19:36:30 22° S
Cosmos 2341 Rocket 4.2 19:31:31 10° SSE 19:37:33 48° E 19:43:39 10° NNE
NOSS 0 Rocket 3.8 19:32:34 10° NNW 19:38:46 87° ENE 19:42:06 29° SSE
Cosmos 1437 4.4 19:35:48 10° N 19:37:27 27° N 19:37:27 27° N
Cosmos 2285 Rocket 4.3 19:33:06 10° NNW 19:39:30 68° WSW 19:45:50 10° S
Cosmos 2154 Rocket 3.9 19:33:59 10° S 19:40:14 66° E 19:46:32 10° NNE
Cosmos 1515 4.4 19:44:22 10° N 19:47:05 44° N 19:47:05 44° N
Cosmos 405 Rocket 3.8 19:53:37 10° NNW 19:57:32 47° W 19:58:51 33° SW
Helios 1A 4.0 20:00:23 28° SSW 20:02:05 44° W 20:06:06 10° NNW
Meteor 1-12 Rocket 4.2 19:57:52 10° S 20:03:51 81° E 20:09:48 10° NNE
Helios 1B rocket 2.9 20:00:20 10° N 20:04:25 59° WNW 20:08:30 10° SSW
Cosmos 2237 Rocket 2.3 20:03:24 10° NNW 20:09:07 75° WSW 20:10:07 59° S
Cosmos 1066 Rocket 4.0 20:06:26 10° N 20:12:08 90° S 20:12:17 86° S
Cosmos 962 Rocket 4.3 20:06:01 10° S 20:12:13 85° E 20:18:23 10° N
Cosmos 2297 Rocket 4.2 20:07:30 10° S 20:08:19 14° S 20:08:19 14° S
Gbstr 26 Del rocket 4.3 20:09:32 10° W 20:12:04 32° NW 20:12:04 32° NW
Resurs 01 Rocket 4.1 20:11:09 10° SW 20:14:24 20° W 20:17:40 10° NW
USA 215 4.5 20:17:51 25° NNE 20:20:07 32° N 20:25:44 10° WNW
Meteor 2-8 Rocket 4.3 20:14:32 10° N 20:20:38 86° W 20:21:04 78° S
Cosmos 2219 Rocket 3.5 20:17:29 10° NW 20:22:31 35° WSW 20:25:25 21° SSW
ERS-1 Rocket 3.8 20:25:14 43° N 20:25:14 43° N 20:28:35 10° NNW
Envisat 3.4 20:24:19 61° WSW 20:24:20 61° W 20:29:23 10° NNW
NOSS 3-1 (A) 3.9 20:17:47 10° NW 20:25:22 90° SW 20:26:48 65° SE
USA 32 4.3 20:20:59 10° N 20:25:53 64° WNW 20:25:53 64° WNW
ATLAS 2AS CENTAUR R/B 3.6 20:23:29 10° NNW 20:31:08 42° NE 20:31:17 42° NE
Cosmos 2227 Rocket 3.0 20:27:43 10° SSW 20:31:29 43° SW 20:31:29 43° SW
NOSS 3-1 (C) 4.3 20:36:15 10° NW 20:43:41 60° WSW 20:45:20 51° SSW
SL-16 R/B 3.0 20:38:32 10° NNW 20:42:32 47° NNW 20:42:32 47° NNW
H-2A R/B 4.3 21:02:30 17° N 21:02:30 17° N 21:03:45 10° N
Cosmos 2333 Rocket 4.3 21:00:15 10° NW 21:04:25 21° W 21:05:58 19° WSW
ATLAS 2AS CENTAUR R/B 4.4 22:14:41 10° NW 22:18:44 32° NW 22:18:44 32° NW
